User: anonymous   Login
Location: Unspecified
(0.0000°N, 0.0000°E)
Time: 23:19:43
(UTC+00:00)
Language:

STARLINK-11487 [DTC] - Orbit

View from above orbital plane
View from above orbital plane
View from above satellite
View from above satellite

Ground track
Ground track

The orbit is defined by the following mean orbital elements,

1 62278U          26144.84221551 +.00000000 +00000-0 +13403-2 0 00006
2 62278  43.0009 318.0749 0003092 264.7319  95.3196 15.70925608    07
Epoch (UTC): 24 May 2026 20:12:47
Eccentricity: 0.0003092
inclination: 43.0009°
perigee height: 354 km
apogee height: 358 km
right ascension of ascending node: 318.0749°
argument of perigee: 264.7319°
revolutions per day: 15.70925608
mean anomaly at epoch: 95.3196°

The dashed part of the orbit path shows where the satellite is in the earth's shadow,  

DLR